Weather History for Russellville, AR

Change the Weather History Date:

Monday, December 2, 2013

  Actual Average (KHOT) Record (KHOT)
Temperature  
Mean Temperature 54 °F -  
Max Temperature 64 °F 57 °F 77 °F (1950)
Min Temperature 44 °F 35 °F 12 °F (1960)
Degree Days  
Heating Degree Days 11    
Growing Degree Days 4 (Base 50)    
Moisture  
Dew Point 47 °F    
Average Humidity 88    
Maximum Humidity 100    
Minimum Humidity 63    
Precipitation  
Precipitation 0.00 in - - ()
Sea Level Pressure  
Sea Level Pressure 29.76 in    
Wind  
Wind Speed 0 mph (SE)    
Max Wind Speed 5 mph    
Max Gust Speed -    
Visibility 5 miles    
Events Fog    
Averages and records for this station are not official NWS values.
T = Trace of Precipitation, MM = Missing Value Source: NWS Daily Summary

Daily Weather History Graph

Daily Weather History Graph

Search for Another Location

Airport:

Trip Planner

Search our weather history database for the weather conditions in past years. The results will help you decide how hot, cold, wet, or windy it might be!

Date:

Astronomy

Dec. 02, 2013 Rise Set
Actual Time 7:03 AM CST 4:59 PM CST
Civil Twilight 6:35 AM CST 5:27 PM CST
Nautical Twilight 6:04 AM CST 5:59 PM CST
Astronomical Twilight 5:33 AM CST 6:29 PM CST
Moon 6:30 AM CST (12/2) 5:02 PM CST (12/2)
Length of Visible Light 10h 51m
Length of Day
9h 56m
Waning Crescent, 0% of the Moon is Illuminated
Dec 2
Waning Crescent
Dec 2
New
Dec 9
First Quarter
Dec 17
Full
Dec 25
Last Quarter

Hourly Weather History & Observations

Time (CST) Temp. Windchill Dew Point Humidity Pressure Visibility Wind Dir Wind Speed Gust Speed Precip Events Conditions
12:45 AM 51.8 °F - 48.2 °F 88% 29.87 in 8.0 mi Calm Calm - N/A   Overcast
12:53 AM 52.0 °F - 48.9 °F 89% 29.86 in 8.0 mi Calm Calm - N/A   Overcast
1:22 AM 51.8 °F - 48.2 °F 88% 29.86 in 8.0 mi Calm Calm - N/A   Overcast
1:53 AM 50.0 °F - 48.0 °F 93% 29.84 in 6.0 mi Calm Calm - N/A   Scattered Clouds
2:53 AM 46.0 °F - 44.1 °F 93% 29.83 in 4.0 mi Calm Calm - N/A   Clear
3:31 AM 44.6 °F - 42.8 °F 93% 29.83 in 1.5 mi Calm Calm - N/A   Scattered Clouds
3:42 AM 44.6 °F - 42.8 °F 93% 29.82 in 2.0 mi Calm Calm - N/A   Mostly Cloudy
3:49 AM 44.6 °F - 42.8 °F 93% 29.82 in 4.0 mi Calm Calm - N/A   Mostly Cloudy
3:53 AM 45.0 °F - 42.1 °F 90% 29.81 in 4.0 mi Calm Calm - N/A   Mostly Cloudy
4:31 AM 44.6 °F - 42.8 °F 93% 29.81 in 4.0 mi Calm Calm - N/A   Mostly Cloudy
4:53 AM 45.0 °F - 43.0 °F 93% 29.80 in 1.0 mi Calm Calm - N/A   Mostly Cloudy
4:58 AM 44.6 °F - 42.8 °F 93% 29.81 in 4.0 mi Calm Calm - N/A   Mostly Cloudy
5:53 AM 46.0 °F - 44.1 °F 93% 29.80 in 4.0 mi Calm Calm - N/A   Overcast
6:53 AM 48.0 °F - 46.0 °F 93% 29.80 in 4.0 mi Calm Calm - N/A   Overcast
7:26 AM 48.2 °F - 46.4 °F 93% 29.81 in 2.5 mi Calm Calm - N/A   Overcast
7:34 AM 50.0 °F - 48.2 °F 94% 29.81 in 3.0 mi Calm Calm - N/A   Overcast
7:53 AM 50.0 °F - 48.0 °F 93% 29.80 in 4.0 mi Calm Calm - N/A   Overcast
8:35 AM 51.8 °F - 48.2 °F 88% 29.81 in 5.0 mi Calm Calm - N/A   Overcast
8:53 AM 53.1 °F - 50.0 °F 89% 29.80 in 6.0 mi Calm Calm - N/A   Overcast
9:53 AM 57.0 °F - 52.0 °F 83% 29.78 in 8.0 mi Calm Calm - N/A   Overcast
10:14 AM 57.2 °F - 51.8 °F 82% 29.78 in 9.0 mi ESE 3.5 mph - N/A   Overcast
10:53 AM 57.9 °F - 52.0 °F 81% 29.78 in 9.0 mi Variable 3.5 mph - N/A   Overcast
11:53 AM 59.0 °F - 52.0 °F 78% 29.75 in 9.0 mi Calm Calm - N/A   Overcast
12:33 PM 60.8 °F - 51.8 °F 72% 29.74 in 9.0 mi SSE 3.5 mph - N/A   Overcast
12:53 PM 60.1 °F - 52.0 °F 75% 29.72 in 9.0 mi Calm Calm - N/A   Overcast
1:32 PM 64.4 °F - 51.8 °F 64% 29.72 in 10.0 mi Variable 3.5 mph - N/A   Scattered Clouds
1:53 PM 64.0 °F - 51.1 °F 63% 29.70 in 10.0 mi Calm Calm - N/A   Partly Cloudy
2:53 PM 64.0 °F - 51.1 °F 63% 29.67 in 10.0 mi SSW 4.6 mph - N/A   Clear
3:53 PM 62.1 °F - 52.0 °F 70% 29.68 in 10.0 mi Calm Calm - N/A   Clear
4:53 PM 55.0 °F - 51.1 °F 86% 29.68 in 10.0 mi Calm Calm - N/A   Clear
5:53 PM 52.0 °F - 48.9 °F 89% 29.68 in 7.0 mi Calm Calm - N/A   Clear
6:53 PM 48.9 °F - 46.0 °F 90% 29.69 in 5.0 mi Calm Calm - N/A   Clear
7:53 PM 46.9 °F - 44.1 °F 90% 29.71 in 5.0 mi Calm Calm - N/A   Clear
8:53 PM 45.0 °F 42.6 °F 43.0 °F 93% 29.70 in 4.0 mi ENE 4.6 mph - N/A   Clear
9:27 PM 46.4 °F - 42.8 °F 87% 29.71 in 1.8 mi Calm Calm - N/A   Clear
9:30 PM 44.6 °F - 42.8 °F 93% 29.71 in 1.0 mi Calm Calm - N/A   Mist
9:37 PM 44.6 °F - 42.8 °F 93% 29.70 in 0.5 mi Calm Calm - N/A Fog Fog
9:48 PM 44.6 °F - 42.8 °F 93% 29.71 in 0.5 mi Calm Calm - N/A Fog Fog
9:53 PM 45.0 °F - 44.1 °F 97% 29.70 in 0.5 mi Calm Calm - N/A Fog Fog
9:58 PM 44.6 °F - 44.6 °F 100% 29.71 in 1.2 mi Calm Calm - N/A   Scattered Clouds
10:05 PM 44.6 °F - 42.8 °F 93% 29.71 in 3.0 mi Calm Calm - N/A   Scattered Clouds
10:53 PM 52.0 °F - 50.0 °F 93% 29.69 in 4.0 mi Calm Calm - N/A   Clear
11:49 PM 46.4 °F - 44.6 °F 93% 29.71 in 3.0 mi Calm Calm - N/A   Clear
11:53 PM 46.9 °F - 45.0 °F 93% 29.70 in 3.0 mi Calm Calm - N/A   Clear